This demonstration page uses our WeatherBlox Daily Observations layout. Learn more.

Left ArrowRight Arrow

Hourly Observations for January 9, 2022

Temp ( °F °C ) Dew Point ( °F °C ) Humidity (%) Winds ( mph kmh ) Pressure ( in mb ) Visibility ( mi km ) Precip ( " mm )
12:52 am 00:52 Cloudy 19 -7.2 7 -13.9 59 59 NNW 15 24 30.37 1028 10 16 0.00 0.00
1:52 am 01:52 Partly Cloudy 15 -9.4 3 -16.1 59 59 NNW 22 35 30.42 1030 10 16 0.00 0.00
2:52 am 02:52 Mostly Clear 13 -10.6 1 -17.2 59 59 NW 18 30 30.46 1032 10 16 0.00 0.00
3:52 am 03:52 Clear 11 -11.7 0 -17.8 61 61 NW 20 31 30.50 1033 10 16 0.00 0.00
4:52 am 04:52 Clear 11 -11.7 0 -17.8 61 61 NNW 16 26 30.53 1034 10 16 0.00 0.00
5:52 am 05:52 Clear 10 -12.2 0 -17.8 63 63 NNW 15 24 30.55 1035 10 16 0.00 0.00
6:52 am 06:52 Clear 9 -12.8 0 -17.8 66 66 NNW 13 20 30.58 1036 10 16 0.00 0.00
7:52 am 07:52 Mostly Sunny 8 -13.3 -1 -18.3 66 66 NNW 13 20 30.61 1037 10 16 0.00 0.00
8:52 am 08:52 Mostly Sunny 11 -11.7 0 -17.8 61 61 NNW 15 24 30.64 1038 10 16 0.00 0.00
9:52 am 09:52 Sunny 12 -11.1 -1 -18.3 56 56 N 15 24 30.68 1039 10 16 0.00 0.00
10:52 am 10:52 Sunny 16 -8.9 0 -17.8 49 49 NNW 12 19 30.70 1040 10 16 0.00 0.00
11:52 am 11:52 Sunny 19 -7.2 -1 -18.3 41 41 NNW 8 13 30.68 1039 10 16 0.00 0.00
12:52 pm 12:52 Sunny 22 -5.6 0 -17.8 38 38 W 3 6 30.66 1038 10 16 0.00 0.00
1:52 pm 13:52 Partly Cloudy 24 -4.4 0 -17.8 35 35 WSW 3 6 30.63 1037 10 16 0.00 0.00
2:52 pm 14:52 Mostly Sunny 25 -3.9 -1 -18.3 32 32 W 8 13 30.63 1037 10 16 0.00 0.00
3:52 pm 15:52 Partly Cloudy 25 -3.9 0 -17.8 33 33 SW 6 9 30.63 1037 10 16 0.00 0.00
4:52 pm 16:52 Mostly Cloudy 24 -4.4 2 -16.7 38 38 S 6 9 30.61 1037 10 16 0.00 0.00
5:52 pm 17:52 Partly Cloudy 22 -5.6 2 -16.7 42 42 S 9 15 30.61 1037 10 16 0.00 0.00
6:52 pm 18:52 Partly Cloudy 20 -6.7 3 -16.1 48 48 SSE 12 19 30.61 1037 10 16 0.00 0.00
7:52 pm 19:52 Clear 17 -8.3 5 -15 59 59 SE 10 17 30.62 1037 10 16 0.00 0.00
8:52 pm 20:52 Clear 18 -7.8 6 -14.4 59 59 SSE 10 17 30.60 1036 10 16 0.00 0.00
9:52 pm 21:52 Clear 19 -7.2 7 -13.9 59 59 SSE 10 17 30.58 1036 10 16 0.00 0.00
10:52 pm 22:52 Clear 23 -5 9 -12.8 55 55 S 7 11 30.56 1035 10 16 0.00 0.00
11:52 pm 23:52 Clear 24 -4.4 10 -12.2 55 55 SSW 7 11 30.55 1035 10 16 0.00 0.00

Powered by AerisWeather